Location: Albany
(42.6526°N, 73.7562°W)
Time: 02:55:51
(UTC+00:00)

FengYun 1-2 T - Pass Details

Date: 19 November 2019
Orbit: 846 x 882 km, 98.7° (Epoch: 07 December)

Event Time Altitude Azimuth Distance (km) Brightness Sun altitude
Rises 23:18:50 0° 171° (S) 3,416 7.4 -20.0°
Reaches altitude 10° 23:21:13 10° 174° (S) 2,479 6.6 -20.5°
Maximum altitude 23:26:42 70° 257° (WSW) 906 4.5 -21.5°
Drops below altitude 10° 23:32:11 10° 342° (NNW) 2,480 6.8 -22.5°
Sets 23:34:35 0° 344° (NNW) 3,418 7.5 -22.9°
